Weather History for KPPF - December, 2011

Change the Weather History Date:

Monday, December 19, 2011

  Actual Average Record
Temperature  
Mean Temperature 47 °F -  
Max Temperature 50 °F 45 °F 74 °F (1978)
Min Temperature 44 °F 25 °F -3 °F (1983)
Degree Days  
Heating Degree Days 18    
Moisture  
Dew Point 42 °F    
Average Humidity 85    
Maximum Humidity 93    
Minimum Humidity 52    
Precipitation  
Precipitation 0.73 in - - ()
Sea Level Pressure  
Sea Level Pressure 29.97 in    
Wind  
Wind Speed 7 mph (ESE)    
Max Wind Speed 15 mph    
Max Gust Speed 24 mph    
Visibility 5 miles    
Events Rain , Thunderstorm    
Averages and records for this station are not official NWS values.
T = Trace of Precipitation, MM = Missing Value Source: NWS Daily Summary

Daily Weather History Graph

Daily Weather History Graph

Search for Another Location

Airport or City:

Trip Planner

Search our weather history database for the weather conditions in past years. The results will help you decide how hot, cold, wet, or windy it might be!

Date:

Astronomy

Dec. 19, 2011 Rise Set
Actual Time 7:31 AM CST 5:06 PM CST
Civil Twilight 7:02 AM CST 5:36 PM CST
Nautical Twilight 6:29 AM CST 6:08 PM CST
Astronomical Twilight 5:57 AM CST 6:40 PM CST
Moon 1:47 AM CST (12/19) 1:02 PM CST (12/19)
Length of Visible Light 10h 34m
Length of Day
9h 35m
Waning Crescent, 31% of the Moon is Illuminated
Dec 19
Waning Crescent
Dec 24
New
Jan 1
First Quarter
Jan 9
Full
Jan 16
Last Quarter

Hourly Weather History & Observations

Time (CST) Temp. Windchill Dew Point Humidity Pressure Visibility Wind Dir Wind Speed Gust Speed Precip Events Conditions
12:52 AM 48.9 °F - 32.0 °F 52% 29.98 in 10.0 mi South 9.2 mph - N/A   Scattered Clouds
1:52 AM 50.0 °F - 33.1 °F 52% 29.98 in 10.0 mi South 9.2 mph - N/A   Overcast
2:52 AM 50.0 °F - 34.0 °F 54% 29.98 in 10.0 mi South 12.7 mph - 0.00 in Thunderstorm Overcast
3:07 AM 50.0 °F - 35.6 °F 58% 29.98 in 10.0 mi South 11.5 mph 19.6 mph N/A   Overcast
3:52 AM 50.0 °F - 36.0 °F 59% 29.99 in 10.0 mi South 6.9 mph - N/A   Overcast
4:37 AM 50.0 °F - 37.4 °F 62% 29.98 in 10.0 mi South 6.9 mph - N/A   Overcast
4:52 AM 50.0 °F - 37.0 °F 61% 29.98 in 10.0 mi South 8.1 mph - N/A   Overcast
6:52 AM 48.9 °F - 39.0 °F 69% 30.00 in 10.0 mi South 5.8 mph - 0.00 in Rain Light Rain
7:52 AM 46.9 °F - 43.0 °F 86% 30.02 in 8.0 mi Calm Calm - 0.02 in Rain Light Rain
8:52 AM 46.9 °F - 42.1 °F 83% 30.01 in 10.0 mi SE 3.5 mph - 0.00 in   Overcast
9:52 AM 46.9 °F - 43.0 °F 86% 30.04 in 3.0 mi South 8.1 mph - 0.02 in Rain Light Rain
10:15 AM 46.4 °F 44.3 °F 44.6 °F 93% 30.03 in 4.0 mi SSE 4.6 mph - 0.01 in Rain Rain
10:52 AM 48.0 °F - 44.1 °F 86% 30.03 in 2.5 mi SSE 4.6 mph - 0.02 in Rain Rain
11:08 AM 46.4 °F 45.2 °F 44.6 °F 93% 30.02 in 3.0 mi South 3.5 mph - 0.00 in Rain Light Rain
11:39 AM 48.2 °F - 42.8 °F 82% 30.01 in 2.5 mi SSE 4.6 mph - 0.04 in Rain Rain
11:52 AM 46.9 °F - 42.1 °F 83% 30.01 in 2.5 mi South 8.1 mph - 0.08 in Rain Rain
12:00 PM 46.4 °F 41.1 °F 42.8 °F 87% 30.00 in 6.0 mi SSE 11.5 mph 18.4 mph 0.00 in Rain Light Rain
12:26 PM 46.4 °F 43.5 °F 42.8 °F 87% 30.01 in 1.8 mi SSE 5.8 mph - 0.06 in Rain Heavy Rain
12:43 PM 46.4 °F - 44.6 °F 93% 30.00 in 3.0 mi Calm Calm - 0.12 in Rain Light Rain
12:59 PM 46.4 °F - 42.8 °F 87% 29.99 in 2.0 mi Calm Calm - 0.02 in Rain Rain
1:08 PM 46.4 °F - 44.6 °F 93% 29.98 in 1.2 mi Calm Calm - 0.07 in Rain Heavy Rain
1:17 PM 46.4 °F - 44.6 °F 93% 29.98 in 1.0 mi Calm Calm - 0.13 in Rain Heavy Rain
1:25 PM 46.4 °F 45.2 °F 44.6 °F 93% 29.97 in 1.5 mi ENE 3.5 mph - 0.15 in Rain Rain
1:31 PM 46.4 °F - 44.6 °F 93% 29.97 in 3.0 mi Calm Calm - 0.15 in Rain Light Rain
1:52 PM 46.9 °F - 44.1 °F 90% 29.96 in 4.0 mi Variable 5.8 mph - 0.16 in Rain Light Rain
2:05 PM 46.4 °F 42.9 °F 44.6 °F 93% 29.95 in 2.5 mi East 6.9 mph - 0.02 in Rain Light Rain
2:12 PM 46.4 °F 43.5 °F 44.6 °F 93% 29.94 in 5.0 mi ENE 5.8 mph - 0.02 in Rain Light Rain
2:33 PM 46.4 °F 42.4 °F 44.6 °F 93% 29.93 in 6.0 mi ENE 8.1 mph - 0.02 in   Overcast
2:52 PM 46.9 °F - 44.1 °F 90% 29.92 in 7.0 mi ENE 6.9 mph - 0.02 in   Overcast
3:52 PM 46.9 °F - 44.1 °F 90% 29.91 in 7.0 mi Variable 5.8 mph - 0.00 in Rain Light Rain
4:52 PM 46.9 °F - 44.1 °F 90% 29.94 in 6.0 mi NE 8.1 mph - 0.01 in Rain Light Rain
5:01 PM 46.4 °F 42.4 °F 44.6 °F 93% 29.95 in 6.0 mi NE 8.1 mph - 0.01 in Rain , Thunderstorm Light Rain
5:18 PM 46.4 °F 40.1 °F 44.6 °F 93% 29.93 in 4.0 mi NNE 15.0 mph 24.2 mph 0.05 in Rain Rain
5:41 PM 46.4 °F 41.9 °F 44.6 °F 93% 29.92 in 3.0 mi ENE 9.2 mph 17.3 mph 0.11 in Rain Heavy Rain
5:52 PM 46.9 °F - 44.1 °F 90% 29.93 in 4.0 mi NE 13.8 mph 24.2 mph 0.12 in Rain Rain
6:16 PM 46.4 °F 42.4 °F 44.6 °F 93% 29.98 in 2.5 mi NE 8.1 mph - 0.08 in Rain Heavy Rain
6:30 PM 46.4 °F 42.4 °F 44.6 °F 93% 29.97 in 3.0 mi NE 8.1 mph - 0.14 in Rain Heavy Rain
6:52 PM 46.0 °F 41.9 °F 44.1 °F 93% 29.98 in 4.0 mi NE 8.1 mph - 0.15 in Rain Rain
6:59 PM 46.4 °F 41.9 °F 44.6 °F 93% 29.97 in 4.0 mi NE 9.2 mph - 0.00 in Rain Light Rain
7:10 PM 46.4 °F 42.4 °F 44.6 °F 93% 29.97 in 6.0 mi NE 8.1 mph - 0.00 in Rain Light Rain
7:52 PM 46.9 °F - 44.1 °F 90% 29.98 in 4.0 mi ENE 8.1 mph - 0.02 in Rain Rain
8:52 PM 46.9 °F - 44.1 °F 90% 29.97 in 6.0 mi ENE 12.7 mph 19.6 mph 0.04 in Rain Light Rain
9:52 PM 46.9 °F - 44.1 °F 90% 29.97 in 10.0 mi ENE 10.4 mph 19.6 mph 0.03 in Rain Light Rain
10:52 PM 46.0 °F 42.5 °F 43.0 °F 89% 29.96 in 4.0 mi NE 6.9 mph 17.3 mph 0.02 in Rain Light Rain
11:39 PM 44.6 °F 39.2 °F 42.8 °F 93% 29.93 in 5.0 mi ENE 10.4 mph 19.6 mph 0.02 in Rain Light Rain
11:52 PM 45.0 °F 40.6 °F 42.1 °F 90% 29.94 in 10.0 mi NE 8.1 mph - 0.02 in Rain Light Rain